{"data":{"norad_id":47351,"intl_designator":"2021-005C","name":"STARLINK-2017","alt_names":[],"object_type":"PAYLOAD","status":"ACTIVE","operator":null,"country":"US","launch_date":"2021-01-20","launch_site_code":"AFETR","launch_vehicle":null,"mission":null,"orbit_class":"UNKNOWN","rcs_meters":null,"size_class":null,"mass_kg":null,"dimensions":null,"purposes":["comms"],"wikipedia_slug":null,"has_3d_model":false,"image_url":null,"decayed_at":null,"tle_current":{"epoch":"2026-05-25T03:25:28.256160Z","epoch_age_seconds":62013,"freshness":"FRESH","line1":"1 47351U 21005C   26145.14268815 -.00000180  00000+0  59504-5 0  9998","line2":"2 47351  53.1596  18.0771 0001095  88.9369 271.1758 15.31700659295434","mean_motion":15.31700659,"eccentricity":0.0001095,"inclination_deg":53.1596,"raan_deg":18.0771,"arg_perigee_deg":88.9369,"mean_anomaly_deg":271.1758,"bstar":5.9504e-6,"rev_number":29543,"period_min":94.013147512787,"perigee_km":469.98807896577,"apogee_km":471.48798259751,"semimajor_km":6848.8750307816,"source":"CELESTRAK","updated_at":"2026-05-25T13:38:16.523482Z"}}}